User: anonymous   Login
Location: Frankfurt am Main
(50.1109°N, 8.6821°E)
Time: 21:47:42
(UTC+01:00)
Language:

AO-91 - Orbit

View from above orbital plane
View from above orbital plane
View from above satellite
View from above satellite

Ground track
Ground track

The orbit data is extracted from the following two-line orbital elements,

1 43017U 17073E   22019.43871193  .00004979  00000-0  38448-3 0  9992
2 43017  97.6915 279.7008 0251772 315.5506  42.5743 14.80214365225060
Epoch (UTC): 19 January 2022 10:31:44
Eccentricity: 0.0251772
inclination: 97.6915°
perigee height: 452 km
apogee height: 805 km
right ascension of ascending node: 279.7008°
argument of perigee: 315.5506°
revolutions per day: 14.80214365
mean anomaly at epoch: 42.5743°
orbit number at epoch: 22506

The dashed part of the orbit path shows where the satellite is in the earth's shadow,  

DLR